Location: Bottenau
(48.5138°N, 8.0462°E)
Time: 16:59:57
(UTC+00:00)

Meteor 2-6 Rocket - Pass Details

Date: 18 April 2021
Orbit: 806 x 914 km, 81.3° (Epoch: 06 May)

Event Time Altitude Azimuth Distance (km) Brightness Sun altitude
Exits shadow 23:48:13 60° 44° (NE) 926 4.5 -30.1°
Drops below altitude 10° 23:52:45 10° 15° (NNE) 2,400 7.5 -30.0°
Sets 23:55:09 0° 14° (NNE) 3,336 8.5 -30.0°
